IZ0QWM-13 Scandriglia IT current weather conditions

sailwx.info

Wind from 069

Air temperature 5.0° C
Dewpoint 3.5° C

Last reported at 2014-Dec-22 22:44 UTC.
Time now 2014-Dec-22 23:29 UTC

Location: N 42°10' E 012°47'.
View on Google Maps.

See reports from other nearby stations

  
Tides and Currents Weather Stations Pressure Air Temp Water Temp Dewpoint Dewpoint Depression Visibility Wind Speed Wind Dir Waves Ship Positions
date/time (UTC)wind fromknots sea level pressurealtimeterstation pressurevisibilityair tempwater tempwave heightnotes
2014-Dec-22 22:44 069 5.0
2014-Dec-22 22:34 069 5.0
2014-Dec-22 22:24 077 5.0
2014-Dec-22 22:14 077 5.0
2014-Dec-22 22:04 077 5.0
2014-Dec-22 21:54 077 5.0
2014-Dec-22 21:44 077 5.0
2014-Dec-22 21:34 077 5.0
2014-Dec-22 21:24 077 5.0
2014-Dec-22 21:14 048 5.6
2014-Dec-22 21:04 027 5.6
2014-Dec-22 20:54 027 5.6
2014-Dec-22 20:44 027 5.6
2014-Dec-22 20:34 027 5.6
2014-Dec-22 20:24 027 5.6
2014-Dec-22 20:14 027 5.6
2014-Dec-22 20:04 027 5.6
2014-Dec-22 19:54 027 6.1
2014-Dec-22 19:44 027 6.1
2014-Dec-22 19:34 027 6.1
2014-Dec-22 19:24 027 6.7
2014-Dec-22 19:14 027 6.7
2014-Dec-22 19:04 049 6.7
2014-Dec-22 18:54 049 6.7
2014-Dec-22 18:44 049 6.7
2014-Dec-22 18:34 049 6.7
2014-Dec-22 18:24 049 6.7
2014-Dec-22 18:14 049 6.7
2014-Dec-22 18:04 049 7.2
2014-Dec-22 17:54 049 7.2
2014-Dec-22 17:44 049 7.2
2014-Dec-22 17:34 049 7.2
2014-Dec-22 17:24 049 7.8
2014-Dec-22 17:14 049 8.3
2014-Dec-22 17:04 049 8.3
2014-Dec-22 16:54 049 8.3
2014-Dec-22 16:44 049 8.9
2014-Dec-22 16:34 049 8.9
2014-Dec-22 16:24 046 9.4
2014-Dec-22 16:14 082 2 gusting 5 10.0
2014-Dec-22 16:04 066 3 gusting 5 10.6
2014-Dec-22 15:54 271 11.1
2014-Dec-22 15:44 271 11.7
2014-Dec-22 15:34 271 12.2
2014-Dec-22 15:24 271 12.8
2014-Dec-22 15:14 271 13.3
2014-Dec-22 15:04 271 13.9
2014-Dec-22 14:54 271 13.9
2014-Dec-22 14:44 271 14.4
2014-Dec-22 14:34 271 13.9
2014-Dec-22 14:24 271 13.9
2014-Dec-22 14:14 271 15.0
2014-Dec-22 14:04 271 14.4
2014-Dec-22 13:54 271 13.9
2014-Dec-22 13:44 290 13.3
2014-Dec-22 13:34 283 13.3
2014-Dec-22 13:24 173 13.3
2014-Dec-22 13:14 173 13.9
2014-Dec-22 13:04 173 14.4
2014-Dec-22 12:54 173 14.4
2014-Dec-22 12:46 173 13.9
2014-Dec-22 12:34 173 13.9
2014-Dec-22 12:24 173 13.9
2014-Dec-22 12:14 173 13.9
2014-Dec-22 12:04 173 13.9
2014-Dec-22 11:34 173 13.3
2014-Dec-22 11:24 173 13.9
2014-Dec-22 11:14 173 13.3
2014-Dec-22 11:04 169 13.3
2014-Dec-22 10:54 169 13.3
2014-Dec-22 10:44 169 13.3
2014-Dec-22 10:34 035 12.8
2014-Dec-22 10:24 035 12.8
2014-Dec-22 10:14 035 12.2
2014-Dec-22 10:04 035 12.2
2014-Dec-22 09:54 035 12.2
2014-Dec-22 09:44 035 11.7
2014-Dec-22 09:34 035 10.6
2014-Dec-22 09:24 035 10.0
2014-Dec-22 09:14 035 8.9
2014-Dec-22 09:04 035 8.9
2014-Dec-22 08:54 035 8.9
2014-Dec-22 08:44 035 8.3
2014-Dec-22 08:34 035 8.3
2014-Dec-22 08:24 070 7.8
2014-Dec-22 08:14 070 7.2
2014-Dec-22 08:04 062 6.7
2014-Dec-22 07:54 062 6.7
2014-Dec-22 07:44 051 6.7
2014-Dec-22 07:34 051 6.1
2014-Dec-22 07:24 051 6.7
2014-Dec-22 07:14 060 6.7
2014-Dec-22 07:04 060 6.1
2014-Dec-22 06:54 060 6.1
2014-Dec-22 06:44 060 6.1
2014-Dec-22 06:34 060 6.7
2014-Dec-22 06:24 024 6.1
2014-Dec-22 06:14 024 6.7
2014-Dec-22 06:04 024 6.1
2014-Dec-22 05:54 082 6.7
2014-Dec-22 05:44 082 6.1
2014-Dec-22 05:34 082 6.1
2014-Dec-22 05:24 110 2 gusting 5 6.1
2014-Dec-22 05:14 082 6.1
2014-Dec-22 05:04 080 6.1
2014-Dec-22 04:54 080 6.7
2014-Dec-22 04:44 080 6.7
2014-Dec-22 04:34 080 6.1
2014-Dec-22 04:24 072 6.7
2014-Dec-22 04:14 083 6.7
2014-Dec-22 04:04 070 6.7
2014-Dec-22 03:54 070 6.1
2014-Dec-22 03:44 077 2 gusting 5 6.1
2014-Dec-22 03:34 063 6.1
2014-Dec-22 03:24 069 6.1
2014-Dec-22 03:14 065 6.1
2014-Dec-22 03:04 065 5.6
2014-Dec-22 02:54 083 5.6
2014-Dec-22 02:44 087 5.6
2014-Dec-22 02:34 087 5.6
2014-Dec-22 02:24 087 6.1
2014-Dec-22 02:14 087 6.1
2014-Dec-22 02:04 087 6.1
2014-Dec-22 01:54 087 5.6
2014-Dec-22 01:44 087 5.6
2014-Dec-22 01:34 069 5.6
2014-Dec-22 01:24 075 5.6
2014-Dec-22 01:14 075 5.0
2014-Dec-22 01:04 093 5.6
2014-Dec-22 00:54 075 5.6
2014-Dec-22 00:44 060 6.1
2014-Dec-22 00:34 046 6.1
2014-Dec-22 00:24 046 6.1
2014-Dec-22 00:14 080 6.1
2014-Dec-22 00:04 030 6.7
2014-Dec-21 23:54 068 6.7
2014-Dec-21 23:44 068 6.1
2014-Dec-21 23:34 068 6.1
2014-Dec-21 23:24 068 6.7
2014-Dec-21 23:14 097 3 gusting 3 6.1
2014-Dec-21 23:04 075 6.1
2014-Dec-21 22:54 083 6.1
2014-Dec-21 22:44 083 6.1
2014-Dec-21 22:34 083 6.1
2014-Dec-21 22:24 083 6.1
2014-Dec-21 22:14 083 6.1
2014-Dec-21 22:04 083 6.1
2014-Dec-21 21:54 083 5.6
2014-Dec-21 21:44 083 5.6
2014-Dec-21 21:34 097 6.1
2014-Dec-21 21:24 097 6.1
2014-Dec-21 21:14 059 6.1
2014-Dec-21 21:04 059 6.1
2014-Dec-21 20:54 059 6.1
2014-Dec-21 20:44 105 6.1
2014-Dec-21 20:34 082 6.7
2014-Dec-21 20:24 087 6.7
2014-Dec-21 20:14 096 2 gusting 3 6.7
2014-Dec-21 20:04 077 7.2
2014-Dec-21 19:54 077 7.2
2014-Dec-21 19:44 079 7.2
2014-Dec-21 19:34 107 7.2
2014-Dec-21 19:24 107 7.2
2014-Dec-21 19:14 086 7.2
2014-Dec-21 19:04 086 7.8
2014-Dec-21 18:54 086 8.3
2014-Dec-21 18:44 086 8.3
2014-Dec-21 18:33 066 8.3
2014-Dec-21 18:23 066 7.8
2014-Dec-21 18:13 066 7.8
2014-Dec-21 18:03 066 8.3
2014-Dec-21 17:53 066 8.9
2014-Dec-21 17:43 066 8.9
2014-Dec-21 17:33 066 8.9
2014-Dec-21 17:23 066 8.9
2014-Dec-21 17:13 066 9.4
2014-Dec-21 17:03 066 9.4
2014-Dec-21 16:53 066 10.0
2014-Dec-21 16:43 066 10.6
2014-Dec-21 16:33 066 11.1
2014-Dec-21 16:23 066 0 gusting 3 11.1
2014-Dec-21 16:13 066 11.1
2014-Dec-21 16:03 242 11.7
2014-Dec-21 15:53 242 12.2
2014-Dec-21 15:43 242 12.2
2014-Dec-21 15:33 242 12.8
2014-Dec-21 15:23 242 12.8
2014-Dec-21 15:13 242 13.3
2014-Dec-21 15:03 260 14.4
2014-Dec-21 14:53 359 15.0
2014-Dec-21 14:43 359 16.1
2014-Dec-21 14:33 359 16.7
2014-Dec-21 14:23 359 17.2
2014-Dec-21 14:13 359 17.8
2014-Dec-21 14:03 359 18.3
2014-Dec-21 13:53 359 17.8
2014-Dec-21 13:43 359 17.8
2014-Dec-21 13:33 359 17.8
2014-Dec-21 13:23 359 17.8
2014-Dec-21 13:13 359 3 gusting 7 17.2
2014-Dec-21 13:03 283 16.7
2014-Dec-21 12:53 283 16.1
2014-Dec-21 12:43 283 15.6
2014-Dec-21 12:33 283 15.6
2014-Dec-21 12:23 283 14.4
2014-Dec-21 12:13 283 13.9
2014-Dec-21 12:03 283 13.3
2014-Dec-21 11:53 283 13.3
2014-Dec-21 11:43 283 12.8
2014-Dec-21 11:33 283 12.8
2014-Dec-21 11:23 283 12.2
2014-Dec-21 11:13 283 12.2
2014-Dec-21 11:03 283 11.7
2014-Dec-21 10:53 174 11.7
2014-Dec-21 10:43 231 11.7
2014-Dec-21 10:33 184 12.2
2014-Dec-21 10:23 183 12.2
2014-Dec-21 10:13 184 3 gusting 7 12.2
2014-Dec-21 10:03 059 12.2
2014-Dec-21 09:53 059 12.2
2014-Dec-21 09:43 059 12.8
2014-Dec-21 09:34 059 12.8
2014-Dec-21 09:23 059 11.7
2014-Dec-21 09:14 059 11.7
2014-Dec-21 09:03 059 10.6
2014-Dec-21 08:53 059 10.6
2014-Dec-21 08:43 059 10.0
2014-Dec-21 08:33 059 9.4
2014-Dec-21 08:23 059 9.4
2014-Dec-21 08:14 059 9.4
2014-Dec-21 08:04 059 9.4
2014-Dec-21 07:53 059 8.9
2014-Dec-21 07:44 059 7.8
2014-Dec-21 07:34 059 6.7
2014-Dec-21 07:23 059 7.2
2014-Dec-21 07:13 077 7.8
2014-Dec-21 07:03 077 7.2
2014-Dec-21 06:53 077 7.2
2014-Dec-21 06:44 077 7.2
2014-Dec-21 06:34 077 6.7
2014-Dec-21 06:23 051 6.7
2014-Dec-21 06:14 051 6.7
2014-Dec-21 06:03 051 6.7
2014-Dec-21 05:54 051 6.7
2014-Dec-21 05:43 051 7.2
2014-Dec-21 05:33 093 7.2
2014-Dec-21 05:23 093 6.7
2014-Dec-21 05:14 093 6.1
2014-Dec-21 05:03 072 5.6
2014-Dec-21 04:54 072 6.7
2014-Dec-21 04:43 069 6.7
2014-Dec-21 04:34 035 5.6
2014-Dec-21 04:24 035 6.1
2014-Dec-21 04:13 035 6.7
2014-Dec-21 04:03 049 6.7
2014-Dec-21 03:53 069 6.7
2014-Dec-21 03:43 069 6.7
2014-Dec-21 03:33 069 6.7
2014-Dec-21 03:23 069 6.7
2014-Dec-21 03:13 066 6.7
2014-Dec-21 03:03 073 2 gusting 4 6.7
2014-Dec-21 02:53 060 6.7
2014-Dec-21 02:43 060 6.7
2014-Dec-21 02:33 060 6.7
2014-Dec-21 02:23 060 6.7
2014-Dec-21 02:13 070 7.2
2014-Dec-21 02:03 083 2 gusting 3 7.2
2014-Dec-21 01:53 028 7.2
2014-Dec-21 01:44 028 7.2
2014-Dec-21 01:33 028 6.7
2014-Dec-21 01:23 028 6.7
2014-Dec-21 01:14 028 6.7
2014-Dec-21 01:03 028 6.7
2014-Dec-21 00:53 028 6.7
2014-Dec-21 00:43 028 7.2
2014-Dec-21 00:33 028 6.7
2014-Dec-21 00:23 028 6.7
2014-Dec-21 00:13 028 7.8
2014-Dec-21 00:03 028 7.8
2014-Dec-20 23:53 028 7.8
2014-Dec-20 23:43 028 7.8
2014-Dec-20 23:33 028 7.8
2014-Dec-20 23:24 028 8.3
2014-Dec-20 23:13 068 7.8
2014-Dec-20 23:03 063 8.3